Wind_Speed
22 22 22 23 24 25 27 27 26 27 26 25 25 25 25 25 23 22 23 22 21 20 19 19 18 19 19 19 19 18 18 18 18 18 19 19 19 19 19 19 20 20 20
22 23 24 24 25 25 26 26 27 28 27 26 27 26 26 26 24 24 24 23 22 21 20 20 20 20 20 20 20 20 20 19 19 20 20 20 20 21 21 22 22 22 22
24 23 24 25 25 26 26 27 27 28 27 27 28 27 27 27 26 25 24 25 25 24 22 22 21 21 21 21 21 21 21 21 21 22 22 21 21 21 22 22 22 23 23
24 24 24 25 25 26 26 26 27 27 27 28 28 28 27 27 26 26 25 26 26 25 24 23 23 23 22 22 22 22 22 22 22 22 22 23 22 23 23 23 23 23 24
24 23 23 24 25 26 26 26 27 27 27 28 28 28 28 27 28 27 27 27 27 26 26 25 25 24 23 23 23 23 23 23 23 23 23 23 23 24 24 24 25 25 25
25 24 25 25 26 26 26 27 27 28 28 28 27 28 28 28 29 29 28 28 28 28 28 27 26 25 24 25 24 24 24 24 24 24 24 24 24 24 25 26 26 27 27
24 24 25 26 27 27 26 26 27 28 28 28 28 29 29 29 29 29 29 29 28 28 28 28 26 25 25 26 26 26 26 25 25 26 26 26 26 26 26 27 28 28 29
24 25 25 26 26 26 26 27 26 27 28 28 27 28 28 29 29 29 29 29 28 28 27 27 27 27 27 27 27 27 27 26 27 27 27 27 27 27 28 27 28 28 29
26 26 26 26 26 26 26 26 26 27 28 28 28 28 28 29 28 28 28 28 28 28 27 27 28 28 28 28 28 28 27 27 27 28 28 28 28 28 28 28 28 29 30
26 27 27 26 27 26 26 27 27 26 27 28 29 29 29 28 28 28 28 29 29 28 28 28 28 28 29 28 28 28 28 28 28 28 29 29 29 29 29 29 29 30 30
27 27 27 28 28 27 27 27 27 27 27 27 28 29 29 29 29 29 29 29 29 28 28 28 28 28 28 28 28 28 29 28 28 29 29 29 29 29 29 29 29 29 29
26 27 27 28 28 27 27 27 27 27 28 27 28 29 29 29 29 29 29 29 29 29 29 29 28 28 28 28 28 28 28 28 28 28 28 28 29 29 29 30 30 30 30
26 27 28 27 26 26 26 26 26 26 26 27 28 29 29 29 29 29 29 29 29 29 28 28 27 28 28 28 27 27 28 28 28 27 27 28 28 28 29 29 29 30 30
27 28 27 27 26 25 25 25 25 25 25 26 27 28 27 27 28 28 28 27 27 27 27 28 27 27 27 27 27 27 27 27 27 27 26 26 27 27 28 28 28 28 29
26 26 26 25 24 24 24 25 24 24 24 24 24 25 26 26 26 26 26 25 25 25 26 27 26 26 25 26 26 27 27 26 26 25 25 26 26 27 27 27 27 27 28
26 26 24 24 24 23 23 24 23 23 23 23 23 23 23 24 25 25 25 25 24 25 25 26 26 25 25 25 25 25 25 25 25 25 25 25 25 26 25 26 26 26 26
26 26 24 24 24 24 23 23 23 23 22 21 21 21 21 22 23 24 24 24 25 25 24 24 24 23 23 23 23 24 24 24 24 24 24 24 24 24 24 25 25 25 25
25 25 24 24 23 22 21 21 21 21 21 21 21 20 19 20 21 21 22 23 23 23 23 23 23 23 22 22 23 23 23 23 22 23 23 23 22 22 23 23 23 23 23
23 23 23 21 20 20 20 20 20 20 20 19 19 18 18 18 19 20 20 20 21 21 21 22 22 22 22 22 21 21 21 21 20 21 21 21 20 20 20 19 20 20 20
23 22 21 20 19 18 19 19 18 18 17 17 17 16 16 17 18 19 19 19 19 19 20 20 21 21 21 21 20 20 20 20 20 19 18 18 18 18 18 17 17 17 17
19 19 19 18 17 16 17 16 16 15 15 15 15 15 15 16 16 16 16 16 17 18 18 18 18 19 20 20 19 19 19 18 18 17 17 17 17 17 16 16 15 15 14
16 16 15 15 15 15 15 15 15 14 13 13 13 13 14 14 14 14 14 15 15 16 16 17 17 17 18 18 18 18 18 18 17 17 16 16 16 15 15 14 14 14 13
13 12 12 11 11 12 12 12 11 11 11 11 12 12 12 12 12 13 14 14 14 14 15 15 16 16 16 17 17 17 16 16 16 16 16 16 15 14 14 14 13 12 12
10 9 9 9 9 9 9 9 9 9 9 9 9 9 10 10 11 11 12 13 13 13 13 13 14 14 14 15 15 15 15 15 15 15 15 15 14 13 12 11 11 11 11
8 8 8 7 7 7 7 7 7 7 7 7 7 8 8 8 9 9 10 10 11 11 10 10 11 11 11 12 12 13 13 13 13 13 13 12 12 12 11 11 11 11 12
7 7 6 6 5 5 5 5 5 5 5 6 6 7 7 7 7 7 7 7 8 8 9 9 9 9 10 10 10 10 10 10 11 11 11 10 10 9 9 9 9 10 10
Wind_Direction
279 275 274 276 276 274 274 274 273 270 268 265 265 266 266 266 264 264 261 262 263 264 265 265 266 267 269 269 269 269 270 270 268 266 265 264 264 262 262 261 261 262 262
279 274 275 276 277 277 275 272 270 268 266 266 265 266 266 266 263 263 262 262 262 262 263 264 266 267 267 267 268 269 270 269 267 267 267 266 265 263 262 262 262 262 263
282 278 277 278 278 278 275 272 269 268 269 268 266 264 265 263 262 262 261 261 261 261 262 264 264 266 268 267 267 269 270 269 269 268 267 266 266 265 264 262 263 263 263
282 280 279 279 280 278 276 272 267 266 268 267 264 263 263 261 260 260 260 259 259 260 261 262 263 265 266 266 267 267 268 269 270 269 268 268 267 267 265 263 263 264 264
284 282 281 281 281 280 278 275 269 266 266 264 262 262 261 261 259 259 259 258 259 260 261 261 262 263 264 265 266 266 267 269 271 270 270 269 269 269 267 264 263 264 265
282 281 282 281 279 280 278 275 272 269 267 264 261 260 259 259 260 258 258 258 258 259 260 260 260 261 264 265 265 266 267 269 271 271 270 270 270 270 268 266 265 265 265
281 282 282 279 278 278 277 274 272 269 266 264 260 259 258 259 257 257 257 256 257 259 260 259 259 260 263 264 265 266 268 269 270 271 271 271 272 271 270 269 268 267 267
281 282 283 280 278 278 275 274 273 268 265 261 260 259 258 257 257 256 255 255 257 260 260 259 260 261 262 264 265 266 267 268 269 270 272 273 273 272 271 270 269 269 269
284 283 283 281 278 277 275 273 273 269 263 261 260 258 258 259 259 257 255 256 257 258 259 259 261 262 263 266 266 266 266 267 268 269 270 272 273 273 272 271 271 271 270
287 286 285 284 281 278 274 273 272 268 265 262 260 258 258 258 258 258 258 258 258 257 258 260 261 263 263 264 265 266 266 267 268 269 269 271 273 274 274 274 274 273 272
288 288 287 285 283 280 275 275 273 269 267 263 261 259 258 258 257 257 258 258 258 258 259 260 260 262 262 263 265 267 267 268 270 270 270 270 271 272 273 274 274 274 273
287 287 287 285 284 280 277 277 275 272 268 265 262 261 259 257 257 257 257 256 257 259 260 261 261 262 261 262 265 267 267 269 271 271 270 270 271 271 273 274 274 275 275
287 287 287 287 286 280 277 278 277 271 268 267 264 263 260 257 256 256 256 256 256 258 259 261 262 262 262 262 264 266 267 269 270 271 271 271 272 272 274 274 275 275 274
287 286 286 285 284 280 278 278 276 272 269 267 264 263 261 258 258 256 256 255 255 255 257 259 261 263 263 263 264 265 267 268 269 270 271 272 273 274 275 276 276 276 276
287 286 285 284 283 281 279 279 276 273 270 267 266 264 261 260 259 257 256 256 256 256 256 257 259 261 263 264 264 265 267 267 269 270 272 274 274 275 276 277 276 277 277
286 286 286 284 283 281 280 279 277 275 272 268 266 264 263 261 259 258 258 258 258 258 258 258 259 260 262 263 264 266 267 268 269 271 273 274 275 277 278 279 279 279 278
285 284 284 284 283 282 280 280 278 275 272 269 265 265 264 262 260 259 257 257 256 256 257 258 258 258 260 261 264 266 267 268 270 272 274 276 276 278 279 280 281 280 280
285 284 284 285 284 282 279 278 276 274 270 268 267 265 263 263 262 260 258 256 256 257 257 257 257 257 260 262 264 266 267 268 270 272 274 275 277 280 282 282 283 283 281
284 284 284 283 282 280 277 277 277 275 272 269 267 264 265 266 265 263 261 258 256 256 257 257 257 258 259 262 264 265 267 269 272 274 274 275 278 282 286 287 287 285 284
285 283 282 280 280 279 278 278 277 277 274 271 268 267 267 268 266 264 261 257 255 255 256 257 256 257 257 260 262 264 266 269 271 273 275 276 279 282 286 287 288 287 287
288 285 282 279 280 279 278 276 276 277 275 272 270 268 268 269 267 264 262 258 255 256 258 258 255 255 257 259 260 262 264 267 268 270 272 275 277 280 283 285 287 288 289
293 289 288 283 279 277 276 275 275 275 275 273 270 269 270 270 267 263 262 259 256 257 257 256 255 255 256 256 257 261 264 266 266 267 269 271 274 277 281 283 286 285 282
297 293 290 288 282 278 279 278 278 277 276 272 270 270 271 271 269 264 263 261 260 258 257 257 255 254 255 255 256 260 265 266 266 269 269 272 274 275 278 283 283 281 281
307 305 297 288 285 284 283 278 277 277 276 276 273 275 277 274 273 270 266 262 259 258 257 255 254 255 256 258 259 261 263 266 266 268 270 271 272 274 275 282 281 281 282
314 310 308 295 289 290 286 282 277 275 280 280 281 283 281 280 275 271 267 263 259 252 250 252 254 255 256 259 261 261 262 264 266 268 268 270 271 271 272 276 277 279 283
317 318 312 304 297 291 292 290 281 288 287 286 288 292 291 289 284 273 267 263 256 249 248 250 254 256 258 260 261 261 262 264 266 266 265 265 265 266 271 275 279 286 290
Height
5860 5860 5859 5859 5858 5857 5857 5857 5857 5858 5858 5858 5859 5859 5860 5860 5861 5861 5862 5863 5863 5863 5863 5864 5864 5864 5864 5864 5865 5865 5865 5865 5865 5865 5865 5866 5866 5867 5867 5868 5868 5869 5869
5854 5854 5854 5853 5852 5852 5851 5851 5852 5852 5853 5853 5854 5854 5855 5855 5855 5856 5857 5858 5858 5859 5859 5859 5859 5859 5860 5860 5860 5860 5861 5861 5860 5861 5861 5861 5861 5862 5862 5863 5863 5864 5864
5849 5848 5848 5847 5847 5846 5845 5845 5846 5846 5847 5847 5848 5849 5849 5850 5850 5851 5852 5852 5853 5854 5854 5854 5854 5855 5855 5855 5855 5855 5855 5856 5856 5856 5856 5856 5856 5857 5857 5857 5858 5858 5858
5843 5843 5842 5841 5841 5840 5840 5840 5840 5840 5841 5841 5841 5842 5843 5844 5845 5846 5846 5847 5847 5848 5849 5849 5850 5850 5850 5850 5850 5850 5851 5850 5850 5850 5851 5851 5851 5851 5852 5852 5852 5852 5853
5838 5837 5836 5836 5835 5835 5834 5834 5834 5834 5834 5834 5835 5836 5836 5837 5839 5839 5840 5841 5842 5842 5843 5843 5844 5844 5845 5845 5845 5845 5845 5845 5845 5845 5845 5845 5846 5846 5846 5846 5846 5847 5847
5832 5831 5831 5830 5829 5829 5828 5827 5827 5827 5828 5828 5828 5829 5830 5831 5832 5833 5834 5835 5836 5836 5837 5837 5838 5838 5839 5839 5839 5839 5840 5840 5839 5839 5839 5839 5840 5840 5840 5840 5840 5840 5841
5826 5825 5825 5824 5823 5823 5822 5821 5821 5820 5820 5821 5822 5822 5823 5824 5825 5826 5827 5828 5829 5830 5830 5831 5832 5832 5833 5833 5834 5834 5834 5833 5833 5833 5833 5833 5833 5833 5833 5833 5833 5834 5834
5820 5819 5818 5817 5817 5816 5815 5815 5814 5814 5813 5814 5815 5816 5817 5818 5818 5819 5820 5821 5822 5823 5824 5825 5825 5826 5826 5827 5827 5827 5827 5827 5827 5827 5827 5827 5827 5827 5827 5827 5827 5826 5826
5814 5813 5812 5810 5810 5809 5808 5808 5807 5807 5807 5807 5808 5809 5810 5811 5811 5812 5813 5814 5815 5816 5817 5818 5818 5819 5819 5820 5820 5820 5820 5821 5821 5820 5820 5820 5820 5820 5820 5820 5820 5819 5819
5808 5807 5805 5804 5802 5802 5801 5801 5800 5800 5800 5800 5801 5802 5803 5804 5805 5805 5806 5807 5808 5809 5810 5811 5811 5812 5812 5812 5813 5813 5813 5814 5814 5814 5814 5814 5814 5813 5813 5813 5813 5812 5812
5802 5800 5799 5797 5796 5795 5794 5794 5793 5793 5793 5793 5794 5794 5795 5796 5797 5798 5799 5800 5801 5802 5803 5803 5804 5805 5805 5805 5806 5806 5806 5807 5807 5807 5806 5806 5806 5806 5806 5806 5805 5805 5805
5796 5794 5792 5791 5789 5788 5787 5786 5785 5785 5785 5785 5786 5786 5787 5788 5789 5790 5792 5793 5794 5795 5796 5796 5797 5797 5798 5799 5799 5799 5799 5800 5800 5800 5800 5799 5799 5799 5799 5799 5798 5798 5797
5789 5787 5786 5784 5782 5781 5780 5779 5778 5778 5778 5778 5778 5779 5779 5780 5781 5783 5784 5785 5787 5788 5789 5789 5790 5790 5791 5792 5792 5793 5793 5793 5793 5793 5793 5792 5792 5792 5792 5791 5791 5791 5790
5783 5781 5779 5777 5776 5774 5774 5773 5772 5771 5770 5771 5771 5771 5772 5773 5774 5775 5777 5778 5779 5781 5782 5782 5783 5783 5784 5785 5785 5786 5786 5786 5786 5786 5786 5786 5786 5785 5785 5784 5784 5783 5783
5776 5774 5773 5771 5769 5768 5767 5766 5765 5765 5764 5764 5764 5764 5765 5766 5767 5768 5769 5771 5773 5774 5775 5775 5776 5777 5777 5778 5778 5779 5779 5780 5780 5780 5780 5780 5779 5779 5778 5778 5777 5776 5776
5770 5768 5766 5765 5763 5762 5761 5760 5759 5758 5758 5758 5758 5758 5758 5759 5760 5761 5762 5763 5765 5767 5768 5768 5769 5770 5771 5772 5772 5773 5773 5774 5774 5774 5774 5773 5773 5772 5772 5771 5771 5770 5769
5763 5761 5760 5758 5757 5756 5755 5754 5753 5753 5752 5752 5752 5752 5752 5752 5753 5754 5755 5757 5758 5760 5761 5762 5763 5764 5765 5766 5766 5766 5767 5767 5768 5768 5768 5767 5767 5766 5766 5765 5764 5764 5763
5756 5755 5753 5752 5751 5750 5749 5748 5747 5747 5746 5746 5746 5746 5746 5747 5747 5748 5749 5750 5751 5753 5754 5755 5756 5758 5759 5760 5760 5760 5761 5761 5762 5762 5762 5761 5761 5761 5760 5759 5758 5758 5757
5750 5748 5747 5746 5745 5744 5743 5743 5742 5741 5741 5740 5740 5740 5741 5741 5741 5742 5743 5744 5745 5747 5748 5749 5750 5752 5753 5753 5754 5755 5755 5756 5756 5756 5756 5756 5756 5755 5755 5754 5753 5752 5751
5744 5742 5741 5741 5740 5739 5738 5738 5737 5736 5736 5735 5735 5735 5735 5736 5736 5737 5737 5738 5739 5741 5742 5743 5745 5746 5747 5748 5749 5750 5750 5751 5751 5751 5751 5751 5751 5751 5750 5749 5748 5747 5746
5738 5737 5736 5735 5735 5734 5733 5733 5732 5731 5731 5731 5731 5731 5731 5731 5731 5732 5732 5733 5735 5736 5737 5738 5740 5741 5742 5743 5744 5744 5745 5746 5746 5746 5747 5747 5747 5746 5746 5745 5744 5743 5742
5733 5732 5731 5730 5730 5729 5729 5728 5728 5727 5727 5727 5727 5727 5727 5727 5727 5727 5728 5729 5730 5732 5733 5734 5735 5736 5737 5738 5739 5740 5740 5741 5741 5743 5742 5743 5742 5742 5742 5741 5740 5739 5739
5729 5728 5728 5727 5726 5726 5725 5725 5724 5724 5723 5723 5723 5723 5723 5723 5723 5724 5724 5725 5726 5728 5729 5730 5731 5732 5733 5734 5735 5735 5736 5736 5737 5738 5738 5738 5738 5738 5738 5737 5737 5736 5736
5726 5726 5725 5724 5724 5723 5722 5722 5722 5721 5721 5721 5721 5720 5720 5720 5720 5720 5721 5722 5723 5724 5725 5726 5727 5728 5729 5729 5730 5731 5732 5732 5733 5733 5734 5734 5734 5734 5734 5734 5733 5733 5732
5725 5724 5723 5722 5722 5721 5720 5720 5720 5719 5719 5719 5719 5718 5718 5718 5717 5717 5718 5719 5719 5720 5721 5722 5723 5724 5725 5726 5726 5727 5728 5729 5729 5730 5730 5730 5730 5731 5731 5730 5730 5729 5729
5723 5722 5721 5721 5720 5720 5719 5719 5719 5719 5718 5718 5717 5716 5716 5716 5715 5715 5716 5716 5717 5718 5719 5720 5721 5722 5722 5723 5723 5724 5725 5725 5726 5726 5727 5727 5727 5727 5727 5727 5727 5726 5725